| time (UTC) | temp F | wind direction | speed MPH | gust MPH | rain 1hr in | rain 24hr in | rain mn in | humidity % | barometer mb |
| 20260904035022 | 72 | 0 | 0.0 | 0.0 | 0.00 | 0.28 | 0.27 | 97 | 1012.0 |
| 20260904034536 | 72 | 0 | 0.0 | 0.0 | 0.00 | 0.28 | 0.27 | 97 | 1012.0 |
| 20260904034017 | 72 | 0 | 0.0 | 0.0 | 0.00 | 0.28 | 0.27 | 97 | 1011.9 |
| 20260904033516 | 72 | 0 | 0.0 | 1.0 | 0.00 | 0.28 | 0.27 | 97 | 1011.7 |
| 20260904033036 | 72 | 0 | 0.0 | 1.0 | 0.00 | 0.28 | 0.27 | 97 | 1011.5 |
| 20260904032520 | 72 | 0 | 0.0 | 0.0 | 0.00 | 0.28 | 0.27 | 97 | 1011.7 |
| 20260904032016 | 72 | 0 | 0.0 | 0.0 | 0.00 | 0.28 | 0.27 | 97 | 1011.6 |
| 20260904031536 | 72 | 0 | 0.0 | 0.0 | 0.00 | 0.28 | 0.27 | 97 | 1011.7 |
| 20260904031019 | 72 | 0 | 0.0 | 0.0 | 0.00 | 0.28 | 0.27 | 97 | 1011.7 |
| 20260904030520 | 72 | 0 | 0.0 | 0.0 | 0.00 | 0.28 | 0.27 | 97 | 1011.8 |
| 20260904030103 | 72 | 0 | 0.0 | 0.0 | 0.00 | 0.28 | 0.27 | 97 | 1011.9 |
| 20260904025518 | 72 | 0 | 0.0 | 0.0 | 0.00 | 0.28 | 0.27 | 97 | 1012.0 |
| 20260904025018 | 73 | 0 | 0.0 | 0.0 | 0.00 | 0.28 | 0.27 | 97 | 1012.0 |
| 20260904024533 | 73 | 0 | 0.0 | 0.0 | 0.00 | 0.28 | 0.27 | 97 | 1012.1 |
| 20260904024019 | 73 | 0 | 0.0 | 0.0 | 0.00 | 0.28 | 0.27 | 97 | 1012.2 |
| 20260904023517 | 73 | 0 | 0.0 | 0.0 | 0.00 | 0.28 | 0.27 | 97 | 1012.4 |
| 20260904023038 | 73 | 0 | 0.0 | 0.0 | 0.00 | 0.28 | 0.27 | 97 | 1012.4 |
| 20260904022518 | 73 | 0 | 0.0 | 0.0 | 0.00 | 0.28 | 0.27 | 97 | 1012.5 |
| 20260904022017 | 73 | 0 | 0.0 | 0.0 | 0.00 | 0.28 | 0.27 | 97 | 1012.5 |
| 20260904021546 | 73 | 0 | 0.0 | 0.0 | 0.00 | 0.28 | 0.27 | 97 | 1012.5 |
| 20260904021018 | 73 | 0 | 0.0 | 0.0 | 0.00 | 0.28 | 0.27 | 97 | 1012.6 |
| 20260904020518 | 73 | 0 | 0.0 | 0.0 | 0.00 | 0.28 | 0.27 | 97 | 1012.7 |
| 20260904020040 | 73 | 0 | 0.0 | 0.0 | 0.00 | 0.28 | 0.27 | 97 | 1012.7 |
| 20260904015515 | 72 | 0 | 0.0 | 0.0 | 0.00 | 0.28 | 0.27 | 97 | 1012.6 |
| 20260904015016 | 72 | 0 | 0.0 | 0.0 | 0.00 | 0.28 | 0.27 | 97 | 1012.5 |
| 20260904014536 | 72 | 0 | 0.0 | 0.0 | 0.00 | 0.28 | 0.27 | 97 | 1012.7 |
| 20260904014018 | 72 | 0 | 0.0 | 0.0 | 0.00 | 0.28 | 0.27 | 97 | 1012.8 |
| 20260904013523 | 72 | 0 | 0.0 | 0.0 | 0.00 | 0.28 | 0.27 | 97 | 1012.8 |
| 20260904013039 | 72 | 0 | 0.0 | 0.0 | 0.00 | 0.28 | 0.27 | 96 | 1012.8 |
| 20260904012518 | 72 | 0 | 0.0 | 0.0 | 0.00 | 0.28 | 0.27 | 97 | 1012.7 |
| 20260904012016 | 72 | 0 | 0.0 | 0.0 | 0.00 | 0.28 | 0.27 | 96 | 1012.8 |
| 20260904011537 | 72 | 0 | 0.0 | 0.0 | 0.00 | 0.28 | 0.27 | 96 | 1012.8 |
| 20260904011017 | 72 | 0 | 0.0 | 0.0 | 0.00 | 0.28 | 0.27 | 96 | 1012.5 |
| 20260904010521 | 72 | 0 | 0.0 | 0.0 | 0.00 | 0.28 | 0.27 | 96 | 1012.3 |
| 20260904010039 | 72 | 0 | 0.0 | 0.0 | 0.00 | 0.28 | 0.27 | 96 | 1012.3 |
| 20260904005519 | 72 | 0 | 0.0 | 0.0 | 0.00 | 0.28 | 0.27 | 96 | 1012.3 |
| 20260904005019 | 72 | 0 | 0.0 | 0.0 | 0.00 | 0.28 | 0.27 | 96 | 1012.4 |
| 20260904004535 | 72 | 0 | 0.0 | 0.0 | 0.00 | 0.28 | 0.27 | 95 | 1012.3 |
| 20260904004016 | 72 | 0 | 0.0 | 0.0 | 0.00 | 0.28 | 0.27 | 95 | 1012.2 |
| 20260904003517 | 72 | 0 | 0.0 | 0.0 | 0.00 | 0.28 | 0.27 | 95 | 1012.2 |
| 20260904003035 | 72 | 0 | 0.0 | 0.0 | 0.00 | 0.28 | 0.27 | 95 | 1012.3 |
| 20260904002520 | 73 | 0 | 0.0 | 0.0 | 0.00 | 0.28 | 0.27 | 95 | 1012.4 |
| 20260904002018 | 73 | 0 | 0.0 | 0.0 | 0.00 | 0.28 | 0.27 | 95 | 1012.5 |
| 20260904001535 | 73 | 0 | 0.0 | 0.0 | 0.00 | 0.28 | 0.27 | 95 | 1012.5 |
| 20260904001019 | 73 | 0 | 0.0 | 0.0 | 0.00 | 0.28 | 0.27 | 95 | 1012.3 |
| 20260904000517 | 73 | 0 | 0.0 | 0.0 | 0.00 | 0.28 | 0.27 | 95 | 1012.3 |
| 20260904000036 | 73 | 0 | 0.0 | 0.0 | 0.00 | 0.28 | 0.27 | 94 | 1012.2 |
| 20260903235517 | 74 | 0 | 0.0 | 0.0 | 0.00 | 0.28 | 0.27 | 94 | 1012.3 |
| 20260903235018 | 74 | 0 | 0.0 | 0.0 | 0.00 | 0.28 | 0.27 | 94 | 1012.3 |
| 20260903234537 | 74 | 0 | 0.0 | 0.0 | 0.00 | 0.28 | 0.27 | 94 | 1012.2 |
| 20260903234016 | 74 | 0 | 0.0 | 0.0 | 0.00 | 0.28 | 0.27 | 94 | 1012.2 |
| 20260903233516 | 75 | 0 | 0.0 | 0.0 | 0.00 | 0.28 | 0.27 | 93 | 1012.1 |
| 20260903233036 | 75 | 0 | 0.0 | 0.0 | 0.00 | 0.28 | 0.27 | 93 | 1012.1 |
| 20260903232519 | 75 | 0 | 0.0 | 0.0 | 0.00 | 0.28 | 0.27 | 93 | 1012.0 |
| 20260903232017 | 75 | 0 | 0.0 | 0.0 | 0.00 | 0.28 | 0.27 | 93 | 1011.9 |
| 20260903231534 | 76 | 0 | 0.0 | 0.0 | 0.00 | 0.28 | 0.27 | 93 | 1011.9 |
| 20260903231018 | 76 | 0 | 0.0 | 0.0 | 0.00 | 0.28 | 0.27 | 92 | 1011.8 |
| 20260903230519 | 76 | 0 | 0.0 | 0.0 | 0.00 | 0.28 | 0.27 | 92 | 1011.8 |
| 20260903230039 | 77 | 0 | 0.0 | 0.0 | 0.00 | 0.28 | 0.27 | 92 | 1011.7 |
| 20260903225516 | 77 | 0 | 0.0 | 0.0 | 0.00 | 0.28 | 0.27 | 91 | 1011.7 |
| 20260903225018 | 77 | 0 | 0.0 | 0.0 | 0.00 | 0.28 | 0.27 | 90 | 1011.7 |
| 20260903224540 | 78 | 0 | 0.0 | 0.0 | 0.00 | 0.28 | 0.27 | 89 | 1011.6 |
| 20260903224015 | 78 | 0 | 0.0 | 0.0 | 0.00 | 0.28 | 0.27 | 89 | 1011.7 |
| 20260903223518 | 79 | 0 | 0.0 | 0.0 | 0.00 | 0.28 | 0.27 | 88 | 1011.7 |
| 20260903223039 | 79 | 0 | 0.0 | 0.0 | 0.00 | 0.28 | 0.27 | 86 | 1011.8 |
| 20260903222516 | 80 | 0 | 0.0 | 0.0 | 0.00 | 0.28 | 0.27 | 85 | 1012.0 |
| 20260903222018 | 81 | 0 | 0.0 | 0.0 | 0.00 | 0.28 | 0.27 | 83 | 1011.9 |
| 20260903221546 | 83 | 0 | 0.0 | 0.0 | 0.00 | 0.28 | 0.27 | 81 | 1012.0 |
| 20260903221023 | 83 | 0 | 0.0 | 0.0 | 0.00 | 0.28 | 0.27 | 80 | 1011.9 |
| 20260903220518 | 84 | 0 | 0.0 | 2.0 | 0.00 | 0.28 | 0.27 | 77 | 1012.1 |
| 20260903220036 | 84 | 0 | 0.0 | 2.0 | 0.00 | 0.28 | 0.27 | 75 | 1012.0 |
| 20260903215518 | 85 | 0 | 0.0 | 2.0 | 0.00 | 0.28 | 0.27 | 76 | 1012.1 |
| 20260903215016 | 85 | 0 | 0.0 | 2.0 | 0.00 | 0.28 | 0.27 | 73 | 1012.0 |
| 20260903214535 | 85 | 0 | 0.0 | 2.0 | 0.00 | 0.28 | 0.27 | 74 | 1012.0 |
| 20260903214018 | 85 | 0 | 0.0 | 2.0 | 0.00 | 0.28 | 0.27 | 72 | 1012.0 |
| 20260903213520 | 85 | 0 | 0.0 | 1.0 | 0.00 | 0.28 | 0.27 | 75 | 1011.9 |
| 20260903213039 | 84 | 0 | 0.0 | 2.0 | 0.00 | 0.28 | 0.27 | 74 | 1012.0 |
| 20260903212518 | 84 | 0 | 0.0 | 2.0 | 0.00 | 0.28 | 0.27 | 75 | 1011.9 |
| 20260903212020 | 84 | 0 | 0.0 | 2.0 | 0.00 | 0.28 | 0.27 | 74 | 1011.9 |
| 20260903211536 | 84 | 0 | 0.0 | 3.0 | 0.00 | 0.28 | 0.27 | 74 | 1011.8 |
| 20260903211019 | 85 | 0 | 0.0 | 3.0 | 0.00 | 0.28 | 0.27 | 73 | 1011.8 |
| 20260903210516 | 85 | 242 | 0.0 | 3.0 | 0.00 | 0.28 | 0.27 | 73 | 1011.8 |
| 20260903210038 | 85 | 0 | 0.0 | 3.0 | 0.00 | 0.28 | 0.27 | 73 | 1011.7 |
| 20260903205520 | 85 | 0 | 0.0 | 6.0 | 0.00 | 0.28 | 0.27 | 72 | 1011.9 |
| 20260903205020 | 85 | 0 | 1.0 | 6.0 | 0.00 | 0.28 | 0.27 | 72 | 1011.9 |
| 20260903204533 | 85 | 352 | 0.0 | 5.0 | 0.00 | 0.28 | 0.27 | 73 | 1011.9 |
| 20260903204019 | 85 | 316 | 2.0 | 5.0 | 0.00 | 0.28 | 0.27 | 72 | 1012.0 |
| 20260903203521 | 85 | 0 | 1.0 | 4.0 | 0.00 | 0.28 | 0.27 | 73 | 1012.0 |
| 20260903203048 | 84 | 329 | 0.0 | 3.0 | 0.00 | 0.28 | 0.27 | 74 | 1011.9 |
| 20260903202519 | 85 | 331 | 1.0 | 5.0 | 0.00 | 0.28 | 0.27 | 71 | 1012.0 |
| 20260903202017 | 85 | 0 | 0.0 | 5.0 | 0.00 | 0.28 | 0.27 | 72 | 1012.0 |
| 20260903201537 | 85 | 167 | 0.0 | 4.0 | 0.00 | 0.28 | 0.27 | 73 | 1012.0 |
| 20260903201015 | 85 | 0 | 1.0 | 4.0 | 0.00 | 0.28 | 0.27 | 74 | 1012.0 |
| 20260903200518 | 84 | 0 | 0.0 | 3.0 | 0.00 | 0.28 | 0.27 | 72 | 1012.0 |
| 20260903200045 | 84 | 0 | 0.0 | 4.0 | 0.00 | 0.28 | 0.27 | 74 | 1012.1 |
| 20260903195515 | 83 | 334 | 0.0 | 6.0 | 0.00 | 0.28 | 0.27 | 75 | 1012.2 |
| 20260903195021 | 83 | 312 | 1.0 | 6.0 | 0.00 | 0.28 | 0.27 | 75 | 1012.2 |
| 20260903194542 | 83 | 5 | 0.0 | 2.0 | 0.00 | 0.28 | 0.27 | 77 | 1012.2 |
| 20260903194015 | 82 | 0 | 0.0 | 3.0 | 0.00 | 0.28 | 0.27 | 78 | 1012.3 |
| 20260903193519 | 82 | 0 | 0.0 | 3.0 | 0.00 | 0.28 | 0.27 | 79 | 1012.4 |
| 20260903193038 | 82 | 0 | 0.0 | 4.0 | 0.00 | 0.28 | 0.27 | 76 | 1012.4 |
| 20260903192518 | 83 | 0 | 0.0 | 4.0 | 0.00 | 0.28 | 0.27 | 75 | 1012.4 |
| 20260903192018 | 83 | 0 | 1.0 | 4.0 | 0.00 | 0.28 | 0.27 | 75 | 1012.4 |
| 20260903191538 | 83 | 313 | 1.0 | 4.0 | 0.00 | 0.28 | 0.27 | 75 | 1012.4 |
| 20260903191017 | 83 | 0 | 0.0 | 4.0 | 0.00 | 0.28 | 0.27 | 76 | 1012.4 |
| 20260903190517 | 82 | 0 | 0.0 | 4.0 | 0.00 | 0.28 | 0.27 | 79 | 1012.5 |
| 20260903190037 | 82 | 5 | 0.0 | 4.0 | 0.00 | 0.28 | 0.27 | 76 | 1012.6 |
| 20260903185515 | 82 | 0 | 0.0 | 3.0 | 0.00 | 0.35 | 0.27 | 78 | 1012.6 |
| 20260903185017 | 82 | 0 | 0.0 | 4.0 | 0.00 | 0.35 | 0.27 | 76 | 1012.7 |
| 20260903184537 | 82 | 0 | 0.0 | 4.0 | 0.00 | 0.35 | 0.27 | 77 | 1012.7 |
| 20260903184018 | 82 | 279 | 0.0 | 4.0 | 0.00 | 0.35 | 0.27 | 77 | 1012.8 |
| 20260903183520 | 81 | 0 | 1.0 | 4.0 | 0.00 | 0.35 | 0.27 | 76 | 1012.8 |
| 20260903183037 | 81 | 0 | 0.0 | 5.0 | 0.00 | 0.35 | 0.27 | 77 | 1012.7 |
| 20260903182516 | 82 | 0 | 1.0 | 6.0 | 0.00 | 0.35 | 0.27 | 77 | 1012.9 |
| 20260903182018 | 82 | 303 | 0.0 | 6.0 | 0.00 | 0.35 | 0.27 | 76 | 1012.9 |
| 20260903181535 | 82 | 0 | 2.0 | 8.0 | 0.00 | 0.35 | 0.27 | 76 | 1012.9 |
| 20260903181019 | 82 | 319 | 0.0 | 8.0 | 0.00 | 0.35 | 0.27 | 77 | 1013.0 |
| 20260903180520 | 82 | 12 | 2.0 | 8.0 | 0.00 | 0.35 | 0.27 | 74 | 1012.9 |
| 20260903180054 | 82 | 0 | 0.0 | 4.0 | 0.00 | 0.35 | 0.27 | 76 | 1013.0 |
| 20260903175517 | 82 | 337 | 1.0 | 8.0 | 0.00 | 0.52 | 0.27 | 75 | 1013.0 |
| 20260903175018 | 83 | 281 | 1.0 | 8.0 | 0.00 | 0.52 | 0.27 | 77 | 1013.0 |
| 20260903174535 | 83 | 288 | 2.0 | 8.0 | 0.00 | 0.52 | 0.27 | 77 | 1013.0 |
| 20260903174016 | 83 | 286 | 3.0 | 8.0 | 0.00 | 0.52 | 0.27 | 78 | 1013.0 |
| 20260903173518 | 83 | 0 | 1.0 | 8.0 | 0.00 | 0.52 | 0.27 | 74 | 1013.0 |
| 20260903173036 | 83 | 338 | 1.0 | 7.0 | 0.00 | 0.52 | 0.27 | 76 | 1013.1 |
| 20260903172522 | 82 | 219 | 1.0 | 8.0 | 0.00 | 0.52 | 0.27 | 77 | 1013.1 |
| 20260903172020 | 82 | 277 | 1.0 | 9.0 | 0.00 | 0.52 | 0.27 | 79 | 1013.2 |
| 20260903171551 | 82 | 269 | 3.0 | 9.0 | 0.00 | 0.52 | 0.27 | 75 | 1013.2 |
| 20260903171019 | 82 | 291 | 2.0 | 11.0 | 0.00 | 0.52 | 0.27 | 77 | 1013.3 |
| 20260903170521 | 81 | 298 | 2.0 | 11.0 | 0.00 | 0.52 | 0.27 | 76 | 1013.3 |
| 20260903170037 | 81 | 329 | 3.0 | 11.0 | 0.00 | 0.52 | 0.27 | 77 | 1013.4 |
| 20260903165516 | 81 | 360 | 3.0 | 10.0 | 0.00 | 0.52 | 0.27 | 78 | 1013.4 |
| 20260903165019 | 81 | 103 | 1.0 | 12.0 | 0.00 | 0.52 | 0.27 | 79 | 1013.4 |
| 20260903164542 | 81 | 315 | 3.0 | 12.0 | 0.00 | 0.52 | 0.27 | 77 | 1013.4 |
| 20260903164020 | 80 | 0 | 3.0 | 9.0 | 0.00 | 0.52 | 0.27 | 79 | 1013.4 |
| 20260903163517 | 80 | 300 | 2.0 | 10.0 | 0.00 | 0.52 | 0.27 | 81 | 1013.6 |
| 20260903163043 | 80 | 314 | 2.0 | 11.0 | 0.00 | 0.52 | 0.27 | 81 | 1013.7 |
| 20260903162517 | 79 | 312 | 2.0 | 11.0 | 0.00 | 0.52 | 0.27 | 81 | 1013.6 |
| 20260903162020 | 79 | 319 | 4.0 | 11.0 | 0.00 | 0.52 | 0.27 | 81 | 1013.6 |
| 20260903161538 | 79 | 324 | 1.0 | 8.0 | 0.00 | 0.52 | 0.27 | 84 | 1013.7 |
| 20260903161016 | 78 | 281 | 0.0 | 8.0 | 0.00 | 0.52 | 0.27 | 86 | 1013.9 |
| 20260903160518 | 78 | 300 | 1.0 | 7.0 | 0.00 | 0.52 | 0.27 | 86 | 1013.9 |
| 20260903160036 | 77 | 0 | 1.0 | 8.0 | 0.00 | 0.52 | 0.27 | 86 | 1014.1 |
| 20260903155519 | 76 | 0 | 1.0 | 8.0 | 0.00 | 0.52 | 0.27 | 86 | 1014.2 |
| 20260903155019 | 76 | 0 | 0.0 | 9.0 | 0.00 | 0.52 | 0.27 | 87 | 1014.3 |
| 20260903154536 | 76 | 0 | 2.0 | 9.0 | 0.00 | 0.52 | 0.27 | 85 | 1014.4 |
| 20260903154018 | 76 | 0 | 0.0 | 4.0 | 0.00 | 0.52 | 0.27 | 86 | 1014.3 |
| 20260903153519 | 76 | 237 | 0.0 | 4.0 | 0.00 | 0.52 | 0.27 | 87 | 1014.3 |
| 20260903153034 | 76 | 0 | 1.0 | 6.0 | 0.00 | 0.52 | 0.27 | 87 | 1014.4 |
| 20260903152521 | 75 | 0 | 0.0 | 8.0 | 0.00 | 0.52 | 0.27 | 88 | 1014.6 |
| 20260903152017 | 75 | 96 | 1.0 | 8.0 | 0.00 | 0.52 | 0.27 | 88 | 1014.7 |
| 20260903151536 | 75 | 351 | 1.0 | 8.0 | 0.00 | 0.52 | 0.27 | 88 | 1014.7 |
| 20260903151018 | 74 | 0 | 1.0 | 5.0 | 0.00 | 0.52 | 0.27 | 89 | 1014.7 |
| 20260903150515 | 74 | 298 | 0.0 | 5.0 | 0.00 | 0.52 | 0.27 | 89 | 1014.7 |
| 20260903150033 | 74 | 0 | 0.0 | 5.0 | 0.00 | 0.52 | 0.27 | 88 | 1014.6 |
| 20260903145518 | 74 | 0 | 0.0 | 8.0 | 0.00 | 0.52 | 0.27 | 90 | 1014.7 |
| 20260903145019 | 73 | 0 | 0.0 | 8.0 | 0.00 | 0.52 | 0.27 | 89 | 1014.7 |
| 20260903144539 | 73 | 306 | 1.0 | 7.0 | 0.00 | 0.52 | 0.27 | 90 | 1014.8 |
| 20260903144017 | 73 | 253 | 1.0 | 7.0 | 0.00 | 0.52 | 0.27 | 91 | 1014.8 |
| 20260903143518 | 73 | 0 | 0.0 | 3.0 | 0.00 | 0.52 | 0.27 | 92 | 1014.8 |
| 20260903143036 | 72 | 0 | 0.0 | 6.0 | 0.00 | 0.52 | 0.27 | 92 | 1014.8 |
| 20260903142516 | 72 | 190 | 1.0 | 6.0 | 0.00 | 0.52 | 0.27 | 92 | 1014.8 |
| 20260903142020 | 72 | 0 | 0.0 | 9.0 | 0.00 | 0.52 | 0.27 | 92 | 1014.9 |
| 20260903141534 | 72 | 0 | 0.0 | 9.0 | 0.00 | 0.52 | 0.27 | 92 | 1014.6 |
| 20260903141018 | 72 | 287 | 0.0 | 5.0 | 0.00 | 0.52 | 0.27 | 93 | 1014.8 |
| 20260903140515 | 71 | 0 | 0.0 | 5.0 | 0.00 | 0.52 | 0.27 | 93 | 1014.8 |
| 20260903140036 | 71 | 0 | 0.0 | 4.0 | 0.00 | 0.52 | 0.27 | 94 | 1014.7 |
| 20260903135515 | 71 | 176 | 0.0 | 6.0 | 0.00 | 0.52 | 0.27 | 94 | 1014.6 |
| 20260903135019 | 71 | 163 | 2.0 | 6.0 | 0.00 | 0.52 | 0.27 | 95 | 1014.5 |
| 20260903134533 | 70 | 107 | 0.0 | 2.0 | 0.00 | 0.52 | 0.27 | 96 | 1014.5 |
| 20260903134015 | 70 | 0 | 0.0 | 4.0 | 0.00 | 0.52 | 0.27 | 97 | 1014.6 |
| 20260903133519 | 70 | 0 | 0.0 | 4.0 | 0.00 | 0.52 | 0.27 | 97 | 1014.6 |
| 20260903133033 | 69 | 232 | 0.0 | 5.0 | 0.00 | 0.52 | 0.27 | 97 | 1014.6 |
| 20260903132519 | 69 | 0 | 0.0 | 5.0 | 0.00 | 0.52 | 0.27 | 97 | 1014.6 |
| 20260903132017 | 69 | 0 | 1.0 | 4.0 | 0.00 | 0.52 | 0.27 | 98 | 1014.5 |
| 20260903131540 | 69 | 268 | 0.0 | 5.0 | 0.00 | 0.52 | 0.27 | 98 | 1014.6 |
| 20260903131016 | 69 | 0 | 0.0 | 5.0 | 0.00 | 0.52 | 0.27 | 98 | 1014.6 |
| 20260903130518 | 69 | 0 | 0.0 | 5.0 | 0.00 | 0.52 | 0.27 | 98 | 1014.4 |
| 20260903130051 | 69 | 0 | 0.0 | 5.0 | 0.00 | 0.52 | 0.27 | 98 | 1014.5 |
| 20260903125521 | 68 | 0 | 0.0 | 3.0 | 0.00 | 0.52 | 0.27 | 98 | 1014.4 |
| 20260903125016 | 68 | 0 | 0.0 | 3.0 | 0.00 | 0.52 | 0.27 | 98 | 1014.4 |
| 20260903124538 | 68 | 0 | 0.0 | 3.0 | 0.00 | 0.52 | 0.27 | 98 | 1014.4 |
| 20260903124016 | 68 | 0 | 0.0 | 3.0 | 0.00 | 0.52 | 0.27 | 98 | 1014.4 |
| 20260903123518 | 68 | 0 | 0.0 | 4.0 | 0.00 | 0.52 | 0.27 | 98 | 1014.6 |
| 20260903123036 | 68 | 0 | 0.0 | 4.0 | 0.00 | 0.52 | 0.27 | 98 | 1014.6 |
| 20260903122517 | 68 | 0 | 0.0 | 3.0 | 0.00 | 0.52 | 0.27 | 98 | 1014.7 |
| 20260903122017 | 67 | 0 | 0.0 | 3.0 | 0.00 | 0.52 | 0.27 | 98 | 1014.7 |
| 20260903121544 | 67 | 0 | 0.0 | 3.0 | 0.00 | 0.52 | 0.27 | 98 | 1014.8 |
| 20260903121015 | 67 | 0 | 0.0 | 3.0 | 0.00 | 0.52 | 0.27 | 98 | 1014.7 |
| 20260903120516 | 67 | 0 | 0.0 | 3.0 | 0.00 | 0.52 | 0.27 | 98 | 1014.6 |
| 20260903120033 | 67 | 0 | 0.0 | 3.0 | 0.00 | 0.52 | 0.27 | 98 | 1014.8 |
| 20260903115517 | 67 | 226 | 0.0 | 3.0 | 0.00 | 0.52 | 0.27 | 99 | 1014.7 |
| 20260903115017 | 67 | 0 | 0.0 | 0.0 | 0.00 | 0.52 | 0.27 | 98 | 1014.7 |
| 20260903114536 | 67 | 0 | 0.0 | 0.0 | 0.00 | 0.52 | 0.27 | 98 | 1014.9 |
| 20260903114017 | 66 | 0 | 0.0 | 0.0 | 0.00 | 0.52 | 0.27 | 98 | 1015.0 |
| 20260903113516 | 66 | 0 | 0.0 | 0.0 | 0.00 | 0.52 | 0.27 | 98 | 1014.9 |
| 20260903113039 | 66 | 0 | 0.0 | 1.0 | 0.00 | 0.52 | 0.27 | 98 | 1014.9 |
| 20260903112518 | 66 | 0 | 0.0 | 2.0 | 0.00 | 0.52 | 0.27 | 98 | 1015.1 |
| 20260903112018 | 66 | 0 | 0.0 | 2.0 | 0.00 | 0.52 | 0.27 | 98 | 1015.2 |
| 20260903111536 | 66 | 0 | 0.0 | 1.0 | 0.00 | 0.52 | 0.27 | 98 | 1015.1 |
| 20260903111018 | 66 | 0 | 0.0 | 1.0 | 0.00 | 0.52 | 0.27 | 98 | 1015.3 |
| 20260903110521 | 66 | 0 | 0.0 | 1.0 | 0.00 | 0.52 | 0.27 | 98 | 1015.1 |
| 20260903110107 | 66 | 0 | 0.0 | 0.0 | 0.00 | 0.52 | 0.27 | 98 | 1015.0 |
| 20260903105519 | 66 | 0 | 0.0 | 0.0 | 0.00 | 0.52 | 0.27 | 98 | 1015.3 |
| 20260903105017 | 66 | 0 | 0.0 | 0.0 | 0.00 | 0.52 | 0.27 | 98 | 1015.2 |
| 20260903104534 | 66 | 0 | 0.0 | 0.0 | 0.00 | 0.52 | 0.27 | 98 | 1015.0 |
| 20260903104017 | 66 | 0 | 0.0 | 0.0 | 0.00 | 0.52 | 0.27 | 98 | 1015.2 |
| 20260903103520 | 66 | 0 | 0.0 | 0.0 | 0.00 | 0.52 | 0.27 | 98 | 1015.3 |
| 20260903103034 | 66 | 0 | 0.0 | 0.0 | 0.00 | 0.52 | 0.27 | 98 | 1015.2 |
| 20260903102519 | 66 | 0 | 0.0 | 0.0 | 0.00 | 0.52 | 0.27 | 98 | 1015.2 |
| 20260903102017 | 66 | 0 | 0.0 | 0.0 | 0.00 | 0.52 | 0.27 | 98 | 1015.2 |
| 20260903101534 | 66 | 0 | 0.0 | 0.0 | 0.00 | 0.52 | 0.27 | 98 | 1015.4 |
| 20260903101015 | 66 | 0 | 0.0 | 0.0 | 0.00 | 0.52 | 0.27 | 98 | 1015.3 |
| 20260903100518 | 66 | 0 | 0.0 | 0.0 | 0.00 | 0.52 | 0.27 | 98 | 1015.3 |
| 20260903100036 | 66 | 0 | 0.0 | 0.0 | 0.00 | 0.52 | 0.27 | 98 | 1015.1 |
| 20260903095521 | 66 | 0 | 0.0 | 0.0 | 0.00 | 0.52 | 0.27 | 98 | 1015.2 |
| 20260903095018 | 66 | 0 | 0.0 | 0.0 | 0.00 | 0.52 | 0.27 | 98 | 1015.2 |
| 20260903094549 | 66 | 0 | 0.0 | 1.0 | 0.00 | 0.52 | 0.27 | 98 | 1015.2 |
| 20260903094018 | 66 | 0 | 0.0 | 1.0 | 0.00 | 0.52 | 0.27 | 98 | 1014.9 |
| 20260903093518 | 66 | 0 | 0.0 | 1.0 | 0.00 | 0.52 | 0.27 | 98 | 1014.7 |
| 20260903093039 | 66 | 0 | 0.0 | 1.0 | 0.00 | 0.52 | 0.27 | 98 | 1014.6 |
| 20260903092518 | 66 | 0 | 0.0 | 1.0 | 0.00 | 0.52 | 0.27 | 98 | 1014.5 |
| 20260903092020 | 66 | 101 | 0.0 | 1.0 | 0.01 | 0.52 | 0.27 | 98 | 1014.6 |
| 20260903091535 | 66 | 0 | 0.0 | 0.0 | 0.01 | 0.52 | 0.27 | 98 | 1014.5 |
| 20260903091015 | 66 | 0 | 0.0 | 0.0 | 0.01 | 0.52 | 0.27 | 98 | 1014.6 |
| 20260903090515 | 66 | 0 | 0.0 | 0.0 | 0.01 | 0.52 | 0.27 | 98 | 1015.0 |
| 20260903090039 | 66 | 0 | 0.0 | 1.0 | 0.01 | 0.52 | 0.27 | 98 | 1014.9 |
| 20260903085518 | 66 | 0 | 0.0 | 1.0 | 0.01 | 0.52 | 0.27 | 98 | 1014.9 |
| 20260903085018 | 66 | 0 | 0.0 | 4.0 | 0.01 | 0.52 | 0.27 | 98 | 1015.1 |
| 20260903084537 | 65 | 0 | 0.0 | 4.0 | 0.01 | 0.52 | 0.27 | 98 | 1015.1 |
| 20260903084016 | 65 | 0 | 0.0 | 0.0 | 0.01 | 0.52 | 0.27 | 98 | 1015.0 |
| 20260903083516 | 65 | 0 | 0.0 | 1.0 | 0.01 | 0.52 | 0.27 | 98 | 1014.9 |
| 20260903083036 | 65 | 0 | 0.0 | 1.0 | 0.01 | 0.52 | 0.27 | 98 | 1014.9 |
| 20260903082519 | 65 | 0 | 0.0 | 1.0 | 0.01 | 0.52 | 0.27 | 98 | 1015.0 |
| 20260903082016 | 65 | 0 | 0.0 | 0.0 | 0.00 | 0.52 | 0.26 | 98 | 1014.7 |
| 20260903081542 | 65 | 0 | 0.0 | 0.0 | 0.00 | 0.52 | 0.26 | 98 | 1014.5 |
| 20260903081017 | 65 | 0 | 0.0 | 0.0 | 0.00 | 0.52 | 0.26 | 98 | 1014.7 |
| 20260903080517 | 65 | 0 | 0.0 | 0.0 | 0.00 | 0.52 | 0.26 | 98 | 1014.7 |
| 20260903080037 | 65 | 0 | 0.0 | 0.0 | 0.00 | 0.52 | 0.26 | 98 | 1014.8 |
| 20260903075518 | 65 | 0 | 0.0 | 0.0 | 0.00 | 0.52 | 0.26 | 98 | 1014.8 |
| 20260903075018 | 65 | 0 | 0.0 | 0.0 | 0.00 | 0.52 | 0.26 | 98 | 1015.0 |
| 20260903074539 | 65 | 0 | 0.0 | 0.0 | 0.00 | 0.52 | 0.26 | 98 | 1015.1 |
| 20260903074021 | 65 | 0 | 0.0 | 0.0 | 0.00 | 0.52 | 0.26 | 98 | 1015.3 |
| 20260903073518 | 65 | 0 | 0.0 | 0.0 | 0.00 | 0.52 | 0.26 | 98 | 1015.4 |
| 20260903073038 | 65 | 0 | 0.0 | 0.0 | 0.00 | 0.52 | 0.26 | 98 | 1015.5 |
| 20260903072519 | 65 | 0 | 0.0 | 0.0 | 0.00 | 0.52 | 0.26 | 98 | 1015.6 |
| 20260903072019 | 65 | 0 | 0.0 | 0.0 | 0.00 | 0.52 | 0.26 | 98 | 1015.6 |
| 20260903071537 | 65 | 0 | 0.0 | 0.0 | 0.00 | 0.52 | 0.26 | 98 | 1015.6 |
| 20260903071016 | 65 | 0 | 0.0 | 0.0 | 0.00 | 0.52 | 0.26 | 98 | 1015.8 |
| 20260903070517 | 65 | 0 | 0.0 | 0.0 | 0.01 | 0.52 | 0.26 | 98 | 1015.6 |
| 20260903070038 | 65 | 0 | 0.0 | 0.0 | 0.01 | 0.52 | 0.26 | 98 | 1015.4 |
| 20260903065520 | 65 | 0 | 0.0 | 0.0 | 0.01 | 0.52 | 0.26 | 98 | 1015.2 |
| 20260903065018 | 65 | 0 | 0.0 | 0.0 | 0.01 | 0.52 | 0.26 | 98 | 1015.2 |
| 20260903064535 | 65 | 0 | 0.0 | 0.0 | 0.01 | 0.52 | 0.26 | 98 | 1015.3 |
| 20260903064018 | 65 | 0 | 0.0 | 0.0 | 0.01 | 0.52 | 0.26 | 98 | 1015.4 |
| 20260903063516 | 65 | 0 | 0.0 | 0.0 | 0.01 | 0.52 | 0.26 | 98 | 1015.2 |
| 20260903063039 | 65 | 0 | 0.0 | 0.0 | 0.01 | 0.52 | 0.26 | 98 | 1015.1 |
| 20260903062518 | 65 | 0 | 0.0 | 0.0 | 0.01 | 0.52 | 0.26 | 98 | 1015.2 |
| 20260903062023 | 65 | 0 | 0.0 | 0.0 | 0.01 | 0.52 | 0.26 | 98 | 1015.4 |
| 20260903061547 | 65 | 0 | 0.0 | 0.0 | 0.01 | 0.52 | 0.26 | 98 | 1015.6 |
| 20260903061017 | 65 | 0 | 0.0 | 0.0 | 0.01 | 0.52 | 0.26 | 98 | 1015.7 |
| 20260903060517 | 65 | 0 | 0.0 | 0.0 | 0.01 | 0.51 | 0.25 | 98 | 1016.0 |
| 20260903060036 | 65 | 0 | 0.0 | 0.0 | 0.02 | 0.51 | 0.25 | 98 | 1016.1 |
| 20260903055523 | 65 | 0 | 0.0 | 0.0 | 0.02 | 0.52 | 0.25 | 98 | 1016.2 |
| 20260903055021 | 65 | 0 | 0.0 | 0.0 | 0.04 | 0.52 | 0.25 | 98 | 1016.5 |
| 20260903054543 | 65 | 0 | 0.0 | 0.0 | 0.05 | 0.52 | 0.25 | 98 | 1016.8 |
| 20260903054018 | 65 | 0 | 0.0 | 0.0 | 0.06 | 0.52 | 0.25 | 97 | 1016.8 |
| 20260903053518 | 65 | 0 | 0.0 | 0.0 | 0.08 | 0.52 | 0.25 | 97 | 1016.9 |
| 20260903053056 | 65 | 0 | 0.0 | 0.0 | 0.09 | 0.52 | 0.25 | 97 | 1017.0 |
| 20260903052516 | 65 | 0 | 0.0 | 0.0 | 0.10 | 0.52 | 0.25 | 97 | 1016.9 |
| 20260903052021 | 65 | 0 | 0.0 | 0.0 | 0.11 | 0.52 | 0.25 | 97 | 1016.9 |
| 20260903051542 | 65 | 0 | 0.0 | 1.0 | 0.13 | 0.52 | 0.25 | 97 | 1016.8 |
| 20260903051023 | 65 | 0 | 0.0 | 1.0 | 0.24 | 0.52 | 0.25 | 97 | 1017.2 |
| 20260903050523 | 65 | 0 | 0.0 | 2.0 | 0.24 | 0.51 | 0.24 | 97 | 1017.1 |
| 20260903050039 | 65 | 0 | 0.0 | 2.0 | 0.23 | 0.50 | 0.23 | 97 | 1017.1 |
| 20260903045520 | 65 | 0 | 0.0 | 2.0 | 0.24 | 0.50 | 0.23 | 97 | 1016.7 |
| 20260903045017 | 65 | 0 | 0.0 | 0.0 | 0.22 | 0.48 | 0.21 | 97 | 1016.4 |
| 20260903044538 | 65 | 0 | 0.0 | 0.0 | 0.21 | 0.47 | 0.20 | 97 | 1017.3 |
| 20260903044017 | 65 | 0 | 0.0 | 1.0 | 0.20 | 0.46 | 0.19 | 97 | 1017.7 |
| 20260903043518 | 65 | 0 | 0.0 | 1.0 | 0.18 | 0.44 | 0.17 | 97 | 1018.2 |
| 20260903043035 | 65 | 0 | 0.0 | 5.0 | 0.17 | 0.43 | 0.16 | 97 | 1018.8 |
| 20260903042525 | 65 | 0 | 0.0 | 6.0 | 0.16 | 0.42 | 0.15 | 97 | 1019.1 |
| 20260903042019 | 65 | 0 | 0.0 | 9.0 | 0.15 | 0.41 | 0.14 | 97 | 1019.4 |
| 20260903041534 | 66 | 281 | 3.0 | 9.0 | 0.11 | 0.37 | 0.10 | 97 | 1019.5 |
| 20260903041017 | 66 | 159 | 0.0 | 2.0 | 0.02 | 0.28 | 0.01 | 97 | 1019.4 |
| 20260903040518 | 66 | 0 | 0.0 | 0.0 | 0.01 | 0.27 | 0.00 | 97 | 1018.6 |
| 20260903040036 | 65 | 0 | 0.0 | 0.0 | 0.01 | 0.27 | 0.00 | 97 | 1018.4 |
| 20260903035516 | 65 | 0 | 0.0 | 0.0 | 0.00 | 0.26 | 0.26 | 97 | 1018.3 |